Change the Weather History Date:

Sunday, January 20, 2013

  Actual Average Record
Temperature  
Mean Temperature 41 °F -  
Max Temperature 50 °F 36 °F 52 °F (1951)
Min Temperature 32 °F 23 °F 3 °F (1971)
Degree Days  
Heating Degree Days 24    
Moisture  
Dew Point 31 °F    
Average Humidity 60    
Maximum Humidity 81    
Minimum Humidity 39    
Precipitation  
Precipitation 0.00 in - - ()
Sea Level Pressure  
Sea Level Pressure 29.79 in    
Wind  
Wind Speed 19 mph (WSW)    
Max Wind Speed 24 mph    
Max Gust Speed 33 mph    
Visibility 10 miles    
Events      
Averages and records for this station are not official NWS values.
T = Trace of Precipitation, MM = Missing Value Source: NWS Daily Summary

Daily Weather History Graph

Daily Weather History Graph

Search for Another Location

Airport or City:

Trip Planner

Search our weather history database for the weather conditions in past years. The results will help you decide how hot, cold, wet, or windy it might be!

Date:

Astronomy

Jan. 20, 2013 Rise Set
Actual Time 7:06 AM EST 4:48 PM EST
Civil Twilight 6:36 AM EST 5:18 PM EST
Nautical Twilight 6:03 AM EST 5:52 PM EST
Astronomical Twilight 5:30 AM EST 6:25 PM EST
Moon 11:48 AM EST (1/20) 1:35 AM EST (1/20)
Length of Visible Light 10h 41m
Length of Day
9h 41m
Waxing Gibbous, 66% of the Moon is Illuminated
Jan 20
Waxing Gibbous
Jan 26
Full
Feb 3
Last Quarter
Feb 10
New
Feb 17
First Quarter

Hourly Weather History & Observations

Time (EST) Temp. Windchill Dew Point Humidity Pressure Visibility Wind Dir Wind Speed Gust Speed Precip Events Conditions
12:15 AM 46.4 °F 38.5 °F 41.0 °F 81% 29.94 in 10.0 mi SW 21.9 mph 27.6 mph N/A   Clear
12:35 AM 46.4 °F 39.0 °F 39.2 °F 76% 29.94 in 10.0 mi WSW 19.6 mph 26.5 mph N/A   Clear
12:55 AM 46.4 °F 38.7 °F 39.2 °F 76% 29.93 in 10.0 mi SW 20.7 mph 26.5 mph N/A   Clear
1:15 AM 46.4 °F 38.5 °F 39.2 °F 76% 29.92 in 10.0 mi SW 21.9 mph 28.8 mph N/A   Clear
1:55 AM 46.4 °F 38.7 °F 37.4 °F 71% 29.91 in 10.0 mi SW 20.7 mph 28.8 mph N/A   Clear
2:15 AM 46.4 °F 39.2 °F 37.4 °F 71% 29.90 in 10.0 mi SW 18.4 mph 27.6 mph N/A   Clear
2:35 AM 46.4 °F 38.7 °F 37.4 °F 71% 29.88 in 10.0 mi SW 20.7 mph 27.6 mph N/A   Clear
2:55 AM 46.4 °F 39.0 °F 37.4 °F 71% 29.86 in 10.0 mi SW 19.6 mph 31.1 mph N/A   Clear
3:15 AM 46.4 °F 39.2 °F 37.4 °F 71% 29.87 in 10.0 mi WSW 18.4 mph 24.2 mph N/A   Clear
3:55 AM 46.4 °F 39.2 °F 37.4 °F 71% 29.84 in 10.0 mi SW 18.4 mph 26.5 mph N/A   Clear
4:35 AM 46.4 °F 39.2 °F 37.4 °F 71% 29.83 in 10.0 mi SW 18.4 mph 26.5 mph N/A   Clear
4:55 AM 46.4 °F 38.7 °F 37.4 °F 71% 29.83 in 10.0 mi SW 20.7 mph 26.5 mph N/A   Clear
5:15 AM 46.4 °F 39.5 °F 37.4 °F 71% 29.82 in 10.0 mi SW 17.3 mph 26.5 mph N/A   Clear
5:35 AM 46.4 °F 39.8 °F 35.6 °F 66% 29.80 in 10.0 mi SW 16.1 mph 24.2 mph N/A   Clear
5:55 AM 46.4 °F 39.2 °F 37.4 °F 71% 29.79 in 10.0 mi SW 18.4 mph 23.0 mph N/A   Clear
6:15 AM 46.4 °F 39.0 °F 35.6 °F 66% 29.78 in 10.0 mi SW 19.6 mph 26.5 mph N/A   Clear
6:35 AM 46.4 °F 38.7 °F 35.6 °F 66% 29.76 in 10.0 mi SW 20.7 mph 29.9 mph N/A   Clear
7:15 AM 46.4 °F 38.1 °F 35.6 °F 66% 29.75 in 10.0 mi SW 24.2 mph - N/A   Clear
7:35 AM 46.4 °F 38.1 °F 35.6 °F 66% 29.75 in 10.0 mi SW 24.2 mph 32.2 mph N/A   Clear
7:55 AM 46.4 °F 38.3 °F 35.6 °F 66% 29.75 in 10.0 mi SW 23.0 mph 31.1 mph N/A   Clear
8:55 AM 48.2 °F - 35.6 °F 62% 29.74 in 10.0 mi SW 21.9 mph 29.9 mph N/A   Clear
9:15 AM 48.2 °F - 37.4 °F 66% 29.74 in 10.0 mi SW 20.7 mph 29.9 mph N/A   Clear
9:35 AM 48.2 °F - 37.4 °F 66% 29.74 in 10.0 mi WSW 23.0 mph 32.2 mph N/A   Clear
10:15 AM 48.2 °F - 37.4 °F 66% 29.74 in 10.0 mi WSW 23.0 mph 31.1 mph N/A   Clear
10:35 AM 48.2 °F - 37.4 °F 66% 29.73 in 10.0 mi WSW 23.0 mph 33.4 mph N/A   Clear
10:55 AM 48.2 °F - 37.4 °F 66% 29.72 in 10.0 mi WSW 23.0 mph 29.9 mph N/A   Clear
11:15 AM 48.2 °F - 37.4 °F 66% 29.71 in 10.0 mi WSW 21.9 mph 32.2 mph N/A   Clear
11:55 AM 48.2 °F - 37.4 °F 66% 29.68 in 10.0 mi SW 23.0 mph 32.2 mph N/A   Clear
12:15 PM 48.2 °F - 37.4 °F 66% 29.67 in 10.0 mi WSW 21.9 mph 32.2 mph N/A   Clear
12:35 PM 48.2 °F - 35.6 °F 62% 29.67 in 10.0 mi WSW 21.9 mph 31.1 mph N/A   Clear
12:55 PM 48.2 °F - 35.6 °F 62% 29.66 in 10.0 mi SW 20.7 mph 28.8 mph N/A   Clear
1:15 PM 48.2 °F - 35.6 °F 62% 29.66 in 10.0 mi WSW 21.9 mph 28.8 mph N/A   Clear
1:55 PM 50.0 °F - 35.6 °F 58% 29.66 in 10.0 mi WSW 21.9 mph 32.2 mph N/A   Clear
2:15 PM 50.0 °F - 35.6 °F 58% 29.66 in 10.0 mi WSW 20.7 mph 26.5 mph N/A   Clear
2:35 PM 48.2 °F - 35.6 °F 62% 29.67 in 10.0 mi WSW 19.6 mph 28.8 mph N/A   Clear
2:55 PM 48.2 °F - 35.6 °F 62% 29.67 in 10.0 mi WSW 20.7 mph 27.6 mph N/A   Clear
3:15 PM 48.2 °F - 35.6 °F 62% 29.68 in 10.0 mi WSW 18.4 mph - N/A   Clear
3:35 PM 48.2 °F - 33.8 °F 58% 29.69 in 10.0 mi WSW 17.3 mph 23.0 mph N/A   Clear
3:55 PM 48.2 °F - 33.8 °F 58% 29.69 in 10.0 mi WSW 17.3 mph 26.5 mph N/A   Clear
4:15 PM 48.2 °F - 30.2 °F 50% 29.71 in 10.0 mi West 16.1 mph 21.9 mph N/A   Clear
4:55 PM 46.4 °F 39.8 °F 30.2 °F 53% 29.72 in 10.0 mi West 16.1 mph 23.0 mph N/A   Clear
5:15 PM 46.4 °F 40.1 °F 28.4 °F 50% 29.73 in 10.0 mi West 15.0 mph 24.2 mph N/A   Clear
5:35 PM 46.4 °F 40.1 °F 28.4 °F 50% 29.74 in 10.0 mi West 15.0 mph 23.0 mph N/A   Clear
5:55 PM 46.4 °F 39.8 °F 26.6 °F 46% 29.75 in 10.0 mi West 16.1 mph 24.2 mph N/A   Clear
6:15 PM 46.4 °F 39.5 °F 28.4 °F 50% 29.76 in 10.0 mi West 17.3 mph 25.3 mph N/A   Clear
6:55 PM 44.6 °F 37.8 °F 21.2 °F 39% 29.79 in 10.0 mi WNW 15.0 mph 23.0 mph N/A   Clear
7:15 PM 42.8 °F 35.8 °F 19.4 °F 39% 29.81 in 10.0 mi NNW 13.8 mph 23.0 mph N/A   Clear
7:55 PM 41.0 °F 34.7 °F 17.6 °F 39% 29.83 in 10.0 mi NW 10.4 mph 20.7 mph N/A   Clear
8:15 PM 39.2 °F 32.0 °F 19.4 °F 45% 29.85 in 10.0 mi NNW 11.5 mph 18.4 mph N/A   Clear
8:35 PM 39.2 °F 32.5 °F 19.4 °F 45% 29.87 in 10.0 mi NW 10.4 mph 20.7 mph N/A   Clear
8:55 PM 37.4 °F 28.5 °F 17.6 °F 45% 29.88 in 10.0 mi NW 15.0 mph 23.0 mph N/A   Clear
9:15 PM 37.4 °F 30.3 °F 15.8 °F 41% 29.89 in 10.0 mi NW 10.4 mph 24.2 mph N/A   Clear
9:35 PM 35.6 °F 27.1 °F 17.6 °F 48% 29.91 in 10.0 mi NW 12.7 mph 20.7 mph N/A   Clear
9:55 PM 35.6 °F 26.2 °F 17.6 °F 48% 29.92 in 10.0 mi NW 15.0 mph 23.0 mph N/A   Clear
10:15 PM 35.6 °F 25.5 °F 15.8 °F 44% 29.92 in 10.0 mi NW 17.3 mph 25.3 mph N/A   Clear
10:55 PM 33.8 °F 24.3 °F 15.8 °F 48% 29.94 in 10.0 mi NW 13.8 mph 18.4 mph N/A   Clear
11:15 PM 33.8 °F 24.3 °F 12.2 °F 41% 29.94 in 10.0 mi NW 13.8 mph 25.3 mph N/A   Clear
11:35 PM 32.0 °F 19.8 °F 12.2 °F 44% 29.94 in 10.0 mi NW 20.7 mph 27.6 mph N/A   Clear
11:55 PM 32.0 °F 21.6 °F 12.2 °F 44% 29.95 in 10.0 mi NW 15.0 mph 23.0 mph N/A   Clear